Theta_e
290 293 291 291 290 290 288 289 286 289 289 291 294 295 296 297 298 297 297 296 294 293 293 293 292 292 292 292 291 290 290 289 289 289 288 287 285 285 285 284 284 284 284 283
287 293 292 290 291 291 291 290 290 289 289 295 296 296 296 297 298 297 296 295 293 293 293 292 290 289 289 288 289 290 288 287 287 286 285 284 284 283 282 281 281 282 281 282
283 290 290 283 290 291 291 292 291 287 292 294 294 296 296 297 298 296 295 293 292 292 291 290 289 288 287 287 288 288 286 286 285 285 284 283 282 281 280 279 279 280 280 280
281 286 276 289 295 295 293 294 294 293 294 296 296 297 297 300 298 296 295 293 291 290 289 288 287 287 287 287 286 285 284 284 284 283 282 281 281 279 278 278 278 279 279 280
281 281 286 290 294 292 291 291 295 294 294 295 294 295 293 299 300 297 294 293 291 290 288 286 286 286 286 285 285 284 283 283 283 282 281 280 278 278 277 277 277 278 279 279
280 279 279 288 295 297 295 287 295 296 294 294 295 289 290 297 297 294 293 291 289 288 287 286 285 285 284 283 283 282 283 283 283 282 280 278 278 277 277 277 277 278 278 278
279 281 286 293 296 297 286 288 296 297 296 295 295 293 294 295 294 293 291 289 288 287 286 285 285 284 282 282 282 283 283 282 282 281 279 278 278 277 276 276 277 276 277 276
282 278 281 297 294 291 294 293 296 296 296 296 292 294 294 293 291 290 288 288 287 285 283 283 283 283 281 280 282 282 282 281 280 279 280 279 277 277 277 276 275 275 275 275
288 286 295 297 296 295 297 296 296 296 296 294 293 293 292 290 290 289 288 286 286 283 281 281 281 282 280 280 281 281 280 278 278 279 278 278 277 276 276 275 275 275 276 274
291 294 296 299 299 298 298 298 297 297 296 295 293 292 290 289 289 287 286 284 283 282 280 279 280 281 281 281 281 280 278 277 278 278 277 277 277 277 276 275 275 276 275 274
292 296 297 298 298 298 298 298 297 297 296 295 293 291 290 289 288 286 284 283 283 281 280 279 280 280 281 281 280 278 278 277 277 278 276 276 276 276 277 277 277 276 275 273
288 296 295 297 299 299 297 297 297 296 294 295 294 291 291 289 287 285 283 282 281 280 280 279 280 280 280 280 279 277 277 276 276 276 275 275 275 276 281 281 283 283 282 276
295 298 298 299 299 300 298 297 298 297 296 294 293 292 290 288 286 285 283 282 281 280 280 279 280 279 280 279 278 277 275 276 275 276 275 274 274 275 274 277 281 282 281 279
297 299 296 298 296 300 299 298 297 296 296 295 293 292 290 287 286 284 282 282 281 280 280 279 279 279 280 279 278 277 275 276 274 273 273 273 273 274 274 274 273 274 278 277
297 301 300 300 299 299 297 296 294 293 293 292 292 290 288 286 285 284 283 282 281 280 279 279 279 278 280 280 278 277 275 273 273 273 274 274 274 274 274 274 273 273 274 274
298 298 299 297 300 297 297 296 294 293 292 291 290 288 288 287 285 283 282 281 279 278 279 277 277 279 279 279 278 276 275 275 273 274 274 274 273 273 273 273 272 271 272 272
294 296 297 298 298 297 296 297 296 293 292 290 289 288 286 283 282 281 280 281 281 280 279 279 277 278 278 278 276 275 274 274 273 274 273 273 273 272 272 271 272 272 272 273
299 300 299 298 298 295 295 296 295 294 291 290 288 285 283 282 281 280 279 279 278 278 278 277 277 277 277 277 276 275 274 274 274 274 273 272 271 272 272 272 272 272 272 273
296 296 297 297 299 297 297 295 293 292 289 287 285 283 283 282 281 280 279 277 277 276 276 277 277 275 275 276 276 275 274 273 273 272 273 272 272 272 271 271 272 272 272 272
297 297 298 298 298 297 294 293 291 289 288 286 284 282 280 280 279 279 279 278 278 278 277 276 275 275 276 276 275 274 273 273 273 273 272 272 272 271 271 269 271 271 270 270
291 292 294 296 296 295 293 290 288 287 286 284 283 281 280 279 279 278 277 276 277 278 277 275 274 274 274 273 273 273 273 272 272 271 270 270 269 270 269 269 269 269 267 267
289 288 288 288 291 289 289 290 289 286 284 284 283 281 279 278 279 279 279 277 277 276 276 274 273 273 272 273 273 272 272 272 271 269 268 268 267 263 263 265 263 265 264 262
287 287 287 287 287 288 286 287 286 285 284 282 280 280 280 280 280 277 274 276 276 275 274 273 272 272 272 273 272 271 270 268 268 267 267 264 264 261 264 263 263 263 257 261
285 285 285 285 282 285 283 283 284 284 283 282 281 282 280 279 277 278 276 276 274 273 272 271 271 272 271 271 269 267 267 267 266 265 266 262 259 261 261 258 260 261 260 260
283 283 282 281 283 283 283 282 281 281 281 280 281 281 281 281 278 275 274 273 272 271 271 270 271 270 270 269 267 266 264 265 264 262 262 259 259 256 256 259 257 256 256 257
282 282 282 284 282 282 281 282 280 280 279 279 279 278 277 276 275 274 273 272 271 270 270 269 270 269 268 268 267 265 264 266 264 263 260 260 260 260 257 259 256 255 252 252
281 279 281 282 282 281 282 282 280 279 280 278 275 275 275 274 274 273 271 270 269 269 269 269 269 269 268 267 265 264 265 264 261 262 259 256 257 254 253 253 252 251 252 252
Wind_Speed
6 6 6 7 7 9 8 6 8 6 9 9 16 15 12 9 9 10 10 9 9 10 11 12 13 13 13 13 13 13 14 13 12 10 9 8 7 6 5 6 5 5 6 6
5 5 7 5 7 8 4 3 4 3 6 5 7 8 8 12 12 11 10 11 11 11 13 13 12 12 12 12 12 13 13 13 10 9 8 7 6 6 7 6 6 6 6 6
4 2 2 4 9 7 5 5 8 7 11 6 5 14 17 16 14 14 13 13 12 12 12 11 11 12 12 12 12 12 12 10 9 8 7 6 6 7 6 6 6 6 5 5
3 3 4 8 4 8 11 8 10 3 6 13 12 11 8 12 16 15 15 13 12 11 11 10 11 11 11 11 11 11 10 9 7 7 7 6 7 6 6 5 5 4 4 4
6 5 5 3 5 7 9 10 11 9 6 6 9 7 3 8 13 15 15 14 12 11 12 12 12 11 12 10 10 10 8 8 7 7 6 6 6 6 4 5 4 3 3 3
3 5 9 9 6 2 3 6 7 9 14 17 13 7 7 12 13 14 14 15 14 13 13 12 9 11 12 10 9 9 7 7 6 6 6 6 6 6 3 3 4 3 4 3
2 4 7 7 6 5 6 10 6 10 15 20 13 5 11 16 14 16 17 17 15 14 13 12 10 11 11 9 8 7 8 7 6 6 6 6 6 4 4 4 4 3 3 2
3 2 6 5 3 7 8 1 6 7 10 14 7 12 19 19 18 18 18 17 15 13 12 9 10 12 10 9 7 8 7 6 6 6 4 5 6 4 4 4 3 2 1 1
9 9 6 3 5 4 6 5 6 8 6 11 15 13 17 18 19 17 18 15 13 14 12 6 6 10 12 8 9 8 7 6 5 5 5 5 5 4 3 2 2 2 1 0
5 4 7 8 4 3 7 6 6 7 16 17 15 19 17 17 16 16 14 14 13 15 13 9 6 7 10 9 8 9 7 5 4 5 5 4 3 2 3 3 2 2 2 1
3 4 9 5 3 3 3 7 9 10 12 15 21 17 20 18 16 15 15 13 14 14 12 11 9 9 8 8 9 8 6 4 4 3 4 3 2 2 2 3 3 3 2 2
4 2 3 7 7 4 9 10 14 16 11 13 18 22 19 16 15 15 16 14 13 13 14 11 10 9 7 8 9 8 6 4 3 3 2 2 2 1 2 3 5 3 3 4
3 7 7 11 8 5 2 7 16 17 17 21 14 17 18 18 16 17 15 15 15 15 14 13 11 10 8 7 8 7 6 4 3 2 2 2 1 2 1 3 7 6 11 7
12 5 5 2 4 7 6 6 2 8 11 14 17 17 16 17 17 17 17 15 14 14 13 12 11 9 8 8 8 7 6 5 4 2 2 2 2 2 2 0 0 1 5 6
10 8 9 6 6 6 4 13 10 10 14 14 15 17 19 20 18 16 14 16 15 14 12 11 11 8 7 8 9 8 5 4 4 3 3 3 2 2 1 1 2 1 2 3
5 4 7 6 4 4 8 10 14 12 13 15 16 16 16 16 16 16 15 17 18 14 13 10 9 7 7 7 8 6 4 5 4 4 3 2 2 2 2 2 2 1 2 2
5 7 5 5 6 5 14 13 14 16 14 16 16 17 17 17 16 15 14 11 12 13 12 12 10 8 7 7 8 6 4 4 5 3 3 2 3 3 2 2 1 2 2 3
7 8 7 6 6 6 5 10 9 14 14 16 17 18 18 19 18 16 14 14 13 11 10 10 10 9 7 6 6 5 4 4 3 3 3 3 2 3 2 2 2 2 2 3
8 11 12 12 12 6 8 11 12 12 13 15 18 17 15 15 17 17 16 15 14 14 9 10 12 9 8 6 6 5 4 4 4 2 3 3 3 3 2 2 2 3 3 3
6 11 15 14 8 8 9 8 12 14 14 16 16 16 16 15 16 17 15 14 12 8 13 12 10 9 8 7 7 4 5 5 4 4 3 3 2 2 2 3 3 3 4 4
7 8 10 10 9 9 12 14 16 17 18 17 20 19 18 16 16 17 16 11 9 14 14 13 9 7 5 6 5 5 4 4 4 4 3 2 2 2 2 2 3 4 3 4
10 9 10 8 8 8 9 13 13 15 17 17 16 18 20 18 17 11 6 12 10 15 11 8 7 8 7 8 5 5 5 5 4 3 3 3 3 2 0 0 2 2 2 3
10 11 14 10 9 11 8 11 14 17 19 19 20 20 17 15 13 14 12 10 11 13 9 8 10 11 10 6 5 5 5 5 4 3 2 3 3 3 1 0 1 2 2 3
10 10 11 7 4 10 12 9 13 13 13 14 16 18 21 16 8 7 11 14 17 14 10 10 10 12 10 6 6 5 4 4 4 3 3 4 2 2 2 1 1 1 2 3
8 8 5 3 3 3 10 13 15 16 16 15 15 13 14 7 10 12 12 11 16 13 10 11 13 12 6 6 6 5 4 4 4 3 3 3 2 2 2 1 0 2 2 2
6 4 3 1 3 4 7 10 10 12 14 14 11 10 10 11 13 13 11 13 11 13 10 8 7 7 6 6 6 5 4 4 4 3 3 3 3 3 2 1 1 2 2 3
2 1 3 3 3 5 6 7 10 11 12 14 14 11 13 13 13 13 14 10 10 9 8 7 7 7 6 6 5 4 4 3 4 3 3 3 3 3 2 2 2 3 3 3
Wind_Direction
216 184 167 193 179 166 180 188 168 232 204 209 197 184 171 144 135 128 122 113 108 108 102 100 96 94 93 93 94 98 96 94 96 97 95 91 83 79 76 67 67 70 82 84
204 202 192 196 205 186 205 141 271 208 251 235 120 107 147 163 151 142 136 125 122 118 113 109 108 104 100 97 99 102 101 102 104 100 96 93 93 84 70 66 65 75 73 81
247 225 204 308 214 183 183 197 156 191 222 133 160 176 182 171 158 151 147 141 137 131 121 118 115 114 107 106 106 102 104 107 106 108 105 98 89 77 76 73 73 84 86 86
180 61 256 236 228 189 188 202 198 167 183 178 189 186 136 165 155 153 149 144 139 131 119 115 113 109 111 110 109 110 109 113 116 110 105 98 85 88 87 80 83 108 103 95
142 188 279 299 215 181 167 250 195 198 144 121 110 79 42 162 160 156 149 143 139 133 126 122 123 123 115 111 112 113 115 119 121 118 109 99 99 107 98 85 75 111 98 83
153 171 204 222 231 171 104 281 189 158 156 149 142 154 215 161 144 132 136 138 135 133 126 123 127 125 120 121 122 123 124 125 122 118 116 117 128 115 88 86 92 106 89 36
163 222 286 252 223 122 144 237 176 164 165 162 181 192 136 132 137 140 140 137 134 134 135 136 132 127 120 123 128 129 121 120 117 122 116 132 125 118 121 102 95 93 107 45
108 95 254 195 77 158 218 261 165 153 169 164 116 124 136 136 137 138 137 137 136 131 132 133 135 127 126 128 135 123 118 115 117 121 124 137 133 134 125 120 119 129 132 56
174 207 229 238 214 198 175 161 183 139 142 134 132 137 143 142 142 144 142 140 137 133 125 114 127 135 130 141 128 124 116 116 117 111 125 142 146 158 152 183 160 215 250 292
78 264 236 230 229 234 177 193 171 153 149 147 143 145 143 141 143 144 142 139 136 132 131 125 118 116 127 131 128 125 122 124 121 121 124 141 136 183 188 205 225 240 273 283
302 276 290 275 247 252 146 121 112 133 151 148 143 152 148 148 149 145 141 141 142 139 136 132 127 120 122 124 126 121 118 123 118 123 133 131 132 181 190 238 205 231 244 183
197 68 287 282 301 199 163 168 157 144 134 152 155 152 150 150 149 146 144 144 139 139 135 136 132 125 123 128 131 128 121 120 130 138 138 125 117 94 37 60 62 53 162 140
285 306 266 267 311 37 355 198 162 160 156 152 154 152 153 148 150 147 143 145 146 146 141 138 135 132 133 132 127 127 126 135 129 134 161 157 132 115 89 337 63 74 107 68
304 316 296 336 320 312 137 101 37 118 142 149 147 147 145 145 143 149 152 149 140 138 138 136 134 137 139 134 128 126 127 130 147 157 163 146 133 123 123 125 126 92 75 51
269 248 241 270 322 336 120 128 136 151 145 144 154 150 151 151 154 153 142 139 135 134 134 135 137 141 137 134 132 132 132 137 145 148 151 134 112 101 59 123 109 84 54 35
281 284 292 313 298 189 157 161 149 166 157 156 155 156 152 144 139 138 140 142 142 152 147 136 136 142 135 136 133 132 137 137 146 147 146 127 101 91 105 107 93 42 78 58
265 288 309 290 275 182 195 187 186 171 160 160 155 144 137 133 131 136 141 143 135 138 140 141 138 133 128 132 133 132 132 138 142 134 134 130 110 101 94 85 51 88 61 70
240 251 241 251 267 205 187 197 176 173 181 155 143 142 142 148 148 143 136 124 117 116 125 130 131 128 124 126 130 131 131 141 148 149 130 115 111 92 68 47 9 83 19 54
263 268 264 253 252 233 194 185 166 154 148 150 145 149 146 140 141 138 136 132 136 137 144 134 129 122 127 131 131 125 128 128 117 107 113 110 88 71 39 10 348 69 27 40
296 273 261 248 226 193 193 151 143 144 149 147 137 136 137 141 141 140 140 145 151 137 139 137 129 127 132 135 128 118 121 122 123 114 103 97 87 67 26 10 20 35 27 22
309 293 297 273 240 189 179 159 154 155 158 156 153 152 144 138 139 137 134 131 134 136 134 132 129 128 128 131 122 118 117 110 110 116 118 112 98 72 26 32 29 47 17 352
329 314 303 291 259 204 175 169 162 148 150 151 143 140 137 138 137 125 113 138 138 136 135 131 128 128 128 125 123 117 121 120 114 109 120 122 107 108 18 18 54 35 10 324
321 315 308 293 215 192 158 157 155 156 155 151 149 146 146 142 144 141 137 148 138 137 130 126 133 130 129 124 120 114 122 123 120 115 134 123 137 158 173 141 66 33 350 325
326 323 307 295 134 142 141 147 138 137 136 137 140 145 141 135 107 91 116 133 130 128 125 132 134 129 124 123 120 123 131 128 124 128 141 132 148 157 151 140 58 345 348 327
320 315 323 348 180 146 132 132 121 126 128 129 131 137 132 134 127 139 135 128 129 122 126 135 130 125 123 127 130 136 138 134 139 144 146 150 163 174 189 150 220 278 305 298
328 306 306 309 122 125 137 145 141 143 138 136 129 124 112 112 115 123 125 127 127 129 131 136 135 129 133 135 141 141 143 143 145 156 167 168 179 177 197 204 277 302 274 261
332 332 93 86 96 127 157 147 147 154 148 141 129 127 124 121 123 122 124 128 129 129 131 132 136 140 139 143 135 140 145 143 164 170 173 177 183 189 199 226 237 253 262 252